#timestamp,LO_Frequency,Hit,StdDev 
1639231215.2,286046998.2,N
1639231235.0,286046998.4,N
1639231235.9,286046998.4,N
1639231255.8,286046998.4,N
1639231275.6,286046998.4,N
1639231295.4,286046999.1,N
1639231315.3,286046998.8,N
1639231335.1,286046999.3,N
1639231355.9,286046998.7,N
1639231375.7,286046998.5,N
1639231395.5,286046998.1,N
1639231415.4,286046999.4,N
1639231435.2,286046999.5,N
1639231455.0,286046999.0,N
1639231456.0,286046999.0,N
1639231475.8,286046999.1,N
1639231495.6,286046998.5,N
1639231515.5,286046996.5,N
1639231535.3,286046999.2,N
1639231555.1,286046996.6,N
1639231575.9,286046999.3,N
1639231595.7,286046996.9,N
1639231615.6,286046996.5,N
1639231635.4,286046999.4,N
1639231655.2,286046999.4,N
1639231675.1,286046998.1,N
1639231676.0,286046998.1,N
1639231695.8,286046998.3,N
1639231715.7,286046998.2,N
1639231735.5,286047000.9,N
1639231755.3,286046999.9,N
1639231775.2,286047000.6,N
1639231795.0,286047001.0,N
1639231795.9,286047001.0,N
1639231815.7,286047000.7,N
1639231835.6,286047001.2,N
1639231855.4,286046998.1,N
1639231875.3,286047001.2,N
1639231895.1,286046998.3,N
1639231896.0,286046998.3,N
1639231915.8,286046998.8,N
1639231935.7,286047001.2,N
1639231955.5,286046998.1,N
1639231975.3,286047002.8,N
1639231995.2,286047000.6,N
1639232015.0,286047000.3,N
1639232015.9,286047000.3,N
1639232035.8,286046998.4,N
1639232055.6,286046996.9,N
1639232075.4,286046998.9,N
1639232095.3,286046998.5,N
1639232115.1,286046999.1,N
1639232135.9,286046999.0,N
1639232155.7,286046998.3,N
1639232175.5,286046999.3,N
1639232195.4,286046998.1,N
1639232215.2,286046998.4,N
1639232235.0,286047001.0,N
1639232235.9,286047001.0,N
1639232255.8,286046998.5,N
1639232275.6,286047001.1,N
1639232295.5,286047000.8,N
1639232315.3,286046998.1,N
1639232335.1,286047000.7,N
1639232355.9,286046998.3,N
1639232375.7,286046998.9,N
1639232395.5,286046998.8,N
1639232415.4,286046999.1,N
1639232435.2,286046999.6,N
1639232455.1,286046999.4,N
1639232456.0,286046999.4,N
1639232475.8,286046998.7,N
1639232495.6,286046998.8,N
1639232515.5,286046998.6,N
1639232535.3,286047000.9,N
1639232555.2,286046999.9,N
1639232575.9,286047000.4,N
1639232595.7,286047000.4,N
1639232615.6,286047000.2,N
1639232635.4,286047000.4,N
1639232655.2,286046998.4,N
1639232675.1,286046999.4,N
1639232676.0,286046999.4,N
1639232695.8,286047000.7,N
1639232715.7,286046998.2,N
1639232735.5,286046999.3,N
1639232755.3,286047001.1,N
1639232775.2,286046998.1,N
1639232795.0,286046996.7,Y
1639232795.9,286046996.7,P
1639232815.8,286046995.3,P
1639232835.6,286046996.5,N
1639232855.4,286046999.2,N
1639232875.3,286046998.4,N
1639232895.1,286046998.6,N
1639232915.8,286046998.5,N
1639232935.7,286046998.9,N
1639232955.5,286046999.6,N
1639232975.4,286046997.0,N
1639232995.2,286046996.8,N
1639233015.0,286046994.9,Y
1639233015.9,286046994.9,P
1639233035.8,286046998.4,N
1639233055.6,286046998.1,N
1639233075.5,286047000.5,N
1639233095.3,286047000.0,N
1639233115.1,286047000.7,N
1639233135.9,286047000.4,N
1639233155.7,286047000.9,N
1639233175.5,286047000.9,N
1639233195.4,286046998.5,N
1639233215.2,286047000.8,N
1639233235.1,286047001.1,N
1639233236.0,286047001.1,N
1639233255.8,286046998.1,N
1639233275.6,286047001.1,N
1639233295.5,286046998.9,N
1639233315.3,286047001.2,N
1639233335.1,286047000.7,N
1639233355.9,286047000.8,N
1639233375.7,286047001.0,N
1639233395.6,286046998.4,N
1639233415.4,286047009.8,Y
1639233435.2,286047009.0,P
1639233455.1,286047010.8,N
1639233456.0,286047010.8,N
1639233475.8,286047008.9,N
1639233495.6,286047005.4,N
1639233515.5,286047003.1,N
1639233535.3,286047004.9,N
1639233555.2,286047003.4,N
1639233575.9,286047004.3,N
1639233595.7,286047001.7,N
1639233615.6,286047001.8,N
1639233635.4,286047000.2,N
1639233655.3,286047000.3,N
1639233675.1,286047000.3,N
1639233676.0,286047000.3,N
1639233695.8,286047000.5,N
1639233715.7,286047000.7,N
1639233735.5,286047001.1,N
1639233755.3,286046998.2,N
1639233775.2,286046998.6,N
1639233795.0,286046998.4,N
1639233795.9,286046998.4,N
1639233815.8,286047000.8,N
1639233835.6,286047001.2,N
1639233855.4,286046997.0,N
1639233875.3,286046996.5,N
1639233895.1,286046999.1,N
1639233915.8,286047001.2,N
1639233935.7,286046999.3,N
1639233955.5,286046997.2,N
1639233975.4,286046995.0,N
1639233995.2,286046997.7,N
1639234015.0,286046997.9,N
1639234015.9,286046997.9,N
1639234035.8,286046997.9,N
1639234055.6,286046997.5,N
1639234075.5,286046997.5,N
1639234095.3,286046997.8,N
1639234115.1,286046996.7,N
1639234135.9,286046997.5,N
1639234155.7,286046997.5,N
1639234175.5,286046997.5,N
1639234195.4,286046997.8,N
1639234215.2,286046997.7,N
1639234235.1,286046995.3,Y
1639234236.0,286046995.3,P
1639234255.8,286046997.5,N
1639234275.6,286046997.1,N
1639234295.5,286046999.6,N
1639234315.3,286046997.6,N
1639234335.2,286046998.6,N
1639234355.9,286046999.6,N
1639234375.7,286046996.9,N
1639234395.6,286046997.0,N
1639234415.4,286046999.4,N
1639234435.2,286046999.1,N
1639234455.1,286046997.4,N
1639234456.0,286046997.4,N
1639234475.8,286046997.5,N
1639234495.7,286046997.9,N
1639234515.5,286046997.1,N
1639234535.3,286046996.7,Y
1639234555.2,286047001.0,P
1639234575.0,286047001.1,N
1639234575.9,286047001.1,N
1639234595.8,286046998.2,N
1639234615.6,286046998.4,N
1639234635.4,286046996.6,N
1639234655.3,286046996.5,N
1639234675.1,286046998.7,N
1639234695.8,286046998.9,N
1639234715.7,286046998.8,N
1639234735.5,286046998.3,N
1639234755.4,286046999.6,N
1639234775.2,286046999.5,N
1639234795.0,286046998.5,N
1639234795.9,286046998.5,N
